Location: Brienzwiler
(46.7508°N, 8.1014°E)
Time: 08:02:15
(UTC+00:00)

CZ-4C R/B - Pass Details

Date: 05 July 2020
Orbit: 632 x 1370 km, 63.4° (Epoch: 06 August)

Event Time Altitude Azimuth Distance (km) Brightness Sun altitude
Rises 23:24:54 0° 320° (NW) 3,734 6.4 -20.6°
Reaches altitude 10° 23:27:25 10° 326° (NW) 2,885 5.8 -20.6°
Maximum altitude 23:34:17 54° 43° (NE) 1,425 3.6 -20.6°
Drops below altitude 10° 23:42:14 10° 119° (ESE) 3,333 5.0 -20.6°
Enters shadow 23:45:18 - 124° (SE) 4,348 5.6 -20.5°
